Regional Weather Roundup
Issued by NWS

Home | Current Version | Previous Version | Text Only | Print | Product List | Glossary On
Versions: 1 2 3 4 5 6 7 8 9 10 11 12 13 14 15 16
000
ASCA42 TJSJ 261210
RWRPR
PUERTO RICO/U.S. VIRGIN ISLANDS HOURLY WEATHER ROUNDUP
NATIONAL WEATHER SERVICE SAN JUAN PR
800 AM AST SUN APR 26 2015

PRZ001-004-261300-
PUERTO RICO

CITY           SKY/WX    TMP DP  RH WIND       PRES   REMARKS
SAN JUAN LMM   MOSUNNY   82  73  74 CALM      29.97R
PONCE          MOSUNNY   82  72  69 CALM      29.93
AGUADILLA      SUNNY     79  72  78 CALM      29.98R
CEIBA          MOSUNNY   82  73  74 S12       29.99R
$$

PRZ006-007-261300-
U.S. VIRGIN ISLANDS

CITY           SKY/WX    TMP DP  RH WIND       PRES   REMARKS
CHARLOTTE AMA  MOSUNNY   81  73  78 SE10      29.97R
CHRISTIANSTED  MOSUNNY   82  73  74 SE10      29.99R
$$

HOURLY WEATHER ROUNDUP FOR THE NEWS MEDIA

CITY           SKY/WX    TMP DP  RH WIND       PRES   REMARKS
ORLANDO        MOSUNNY   78  73  84 W9        29.78R
NEW YORK       PTSUNNY   49  30  48 NE12      29.71R
NEWARK         MOSUNNY   49  32  52 N10       29.71R
CHICAGO        MOSUNNY   38  30  73 N8        29.96R WCI  32
HARTFORD       SUNNY     47  32  56 N5        29.68S
BOSTON         MOSUNNY   46  32  58 VRB6      29.69S
DALLAS         PTCLDY    61  56  83 CALM      29.67R
PHILADELPHIA   CLOUDY    49  29  46 NE15      29.69R
LOS ANGELES    PTCLDY    51  48  89 E3        29.95R
WASHINGTON DC  CLOUDY    43  39  86 NW5       29.70S



USA.gov is the U.S. government's official web portal to all federal, state and local government web resources and services.